Location: Meinert
(37.9441°N, 122.0275°W)
Time: 19:29:54
(UTC+00:00)

Cosmos 1933 Rocket - Pass Details

Date: 18 April 2024
Orbit: 602 x 628 km, 82.5° (Epoch: 22 May)

Event Time Altitude Azimuth Distance (km) Brightness Sun altitude
Rises 12:33:50 0° 347° (NNW) 2,878 7.1 -10.9°
Reaches altitude 10° 12:36:05 10° 343° (NNW) 1,965 6.2 -10.5°
Maximum altitude 12:40:19 54° 267° (W) 739 3.6 -9.7°
Drops below altitude 10° 12:44:30 10° 190° (S) 1,941 5.8 -8.9°
Sets 12:46:44 0° 185° (S) 2,838 6.7 -8.5°
